Temperature
16 16 15 14 14 14 14 13 13 13 13 13 13 12 12 12 12 12 12 12 12 12 12 12 12 12 12 12 12 12 13 13 13 13 13 12 12 11 12 12 12 12 12
18 16 15 15 14 14 14 14 13 13 13 13 12 12 12 12 12 12 12 11 11 11 11 11 11 11 11 11 12 12 12 13 13 12 12 12 11 11 11 11 11 11 11
17 16 15 15 14 14 14 13 13 13 13 12 12 12 11 11 11 11 11 11 11 11 11 11 11 11 11 11 11 12 12 12 12 12 12 11 10 10 10 10 10 10 10
17 16 15 15 14 14 14 13 13 13 12 12 12 11 11 11 11 11 11 11 11 11 11 11 11 11 10 11 11 11 12 12 12 12 11 11 10 10 9 9 9 9 10
17 16 15 15 14 14 14 13 13 13 12 12 11 11 11 11 11 10 10 10 10 10 10 10 10 10 10 10 11 11 12 12 11 11 11 10 10 9 9 9 9 9 9
17 16 15 15 14 14 14 13 13 13 12 12 11 11 11 11 10 10 10 10 10 10 10 10 10 10 10 10 10 11 11 11 11 11 10 10 10 9 9 9 9 9 9
17 16 15 15 14 14 14 13 13 12 12 11 11 11 10 10 10 10 10 10 10 10 10 10 10 10 10 10 10 10 11 10 10 10 10 10 9 9 9 9 9 9 9
17 16 15 15 14 14 13 13 12 12 12 11 11 10 10 10 10 10 10 10 10 10 10 10 10 10 10 10 10 10 10 10 10 10 9 9 9 8 8 8 8 8 9
16 16 15 14 14 14 13 13 12 12 12 11 11 11 10 10 10 10 10 10 10 10 10 10 10 10 10 10 10 10 9 9 9 9 9 9 8 8 8 8 8 8 8
16 16 15 15 14 14 13 13 12 12 12 11 11 11 11 10 10 10 10 10 10 10 10 10 10 10 9 9 9 9 9 9 9 9 9 8 8 8 8 8 8 8 8
16 15 15 15 14 14 14 13 12 12 12 11 11 11 11 11 10 10 10 10 10 10 10 9 9 9 9 9 9 9 9 9 8 8 8 8 8 7 7 7 7 7 7
17 16 15 15 15 14 14 13 13 12 12 11 11 11 11 11 10 10 10 10 10 10 10 9 9 9 9 9 9 9 9 9 8 8 8 8 8 7 7 7 7 7 7
18 17 16 15 15 14 14 13 13 12 12 12 11 11 11 11 10 10 10 10 10 9 9 9 9 9 9 9 9 9 9 8 8 8 8 8 8 7 7 7 7 6 6
18 18 17 16 15 15 14 14 13 13 12 12 12 11 11 11 10 10 10 10 9 9 9 9 9 9 9 9 9 9 9 9 8 8 8 8 8 7 7 6 6 6 6
19 18 17 16 15 15 14 14 13 13 13 12 12 11 11 11 10 10 10 10 9 9 9 9 9 9 9 9 9 9 9 9 9 8 8 8 8 7 7 6 6 6 6
19 19 18 17 16 15 15 14 14 13 13 12 12 11 11 11 10 10 10 9 9 9 9 9 9 9 9 9 9 9 9 9 9 8 8 8 8 7 7 6 6 6 5
20 19 18 17 16 15 15 14 14 13 13 12 12 11 11 10 10 10 10 9 9 9 9 9 9 9 9 9 9 9 9 9 9 8 8 8 8 7 7 7 6 6 5
19 19 18 17 16 16 15 15 14 13 13 12 12 11 11 10 10 10 10 9 9 9 9 9 9 9 9 9 9 9 9 9 9 8 8 8 8 7 7 7 7 6 6
19 19 18 18 17 16 15 15 14 13 13 12 12 11 11 10 10 10 9 9 9 9 9 9 9 9 9 9 9 9 9 9 9 8 8 8 7 7 7 7 6 6 6
19 18 18 18 17 16 15 14 13 13 12 12 12 11 11 11 10 10 10 9 9 9 9 9 9 9 9 9 9 9 9 9 9 8 8 8 7 7 7 6 6 6 6
18 18 18 17 17 16 15 14 14 13 13 12 12 11 11 11 10 10 10 9 9 9 9 9 9 9 9 9 9 9 9 9 8 8 8 7 7 7 7 6 6 6 6
19 19 18 18 17 17 16 16 15 14 14 13 12 11 11 11 10 10 10 9 9 9 9 9 9 9 8 8 8 8 8 8 8 8 8 7 7 7 6 6 6 5 5
19 19 19 19 18 17 17 15 14 13 12 12 12 11 11 11 10 10 10 9 9 9 9 9 9 8 8 8 8 8 8 8 8 8 8 7 7 6 6 6 5 5 5
20 20 19 19 18 18 17 15 15 14 13 13 13 12 11 11 10 10 10 9 9 9 9 9 9 8 8 8 8 8 8 7 7 7 7 7 7 6 6 5 5 5 5
20 19 19 19 18 17 17 16 15 15 14 14 13 12 11 11 11 10 10 10 9 9 9 9 9 8 8 8 8 8 8 7 7 6 6 7 6 6 6 5 5 5 4
19 19 19 18 18 17 16 16 15 15 14 13 13 12 11 11 11 10 10 10 9 9 9 9 8 8 8 8 8 8 7 7 7 6 6 6 6 6 6 5 5 4 4
Wind_Speed
7 11 18 18 17 17 16 15 14 14 13 13 13 13 13 13 13 14 14 15 15 15 15 15 15 16 16 17 17 17 18 18 19 19 19 18 18 18 18 17 17 16 18
10 15 19 19 18 18 17 16 15 14 13 13 13 13 13 13 13 14 14 14 15 15 15 15 15 15 16 16 16 17 17 17 17 18 17 17 16 16 16 16 16 15 16
11 16 19 20 19 18 17 16 15 14 14 13 13 13 13 13 13 13 13 13 13 14 14 14 14 15 15 15 15 15 16 16 16 16 16 17 14 15 15 15 14 14 14
14 16 17 20 20 19 18 18 16 15 14 13 13 13 12 13 12 12 13 13 13 13 13 14 14 14 14 14 14 14 14 14 14 14 15 15 13 12 13 13 13 13 12
13 16 19 21 21 20 19 18 17 15 14 13 13 12 12 12 12 12 12 12 12 13 13 13 12 12 13 13 13 13 13 13 13 13 14 14 13 11 12 12 11 11 11
11 15 19 22 21 20 19 19 17 15 14 13 13 12 12 12 12 12 12 11 11 12 12 11 11 11 11 11 11 12 12 11 12 12 12 12 12 11 11 10 10 10 10
11 14 18 22 21 20 19 18 17 16 15 14 13 12 12 11 11 11 11 10 10 10 10 10 10 10 10 10 10 11 10 9 9 9 9 10 10 10 10 10 9 9 9
11 12 16 21 21 20 19 19 18 16 15 14 13 12 12 11 11 10 10 9 9 9 9 9 9 9 9 10 10 10 9 8 7 7 7 8 8 9 9 9 9 9 9
10 10 12 17 19 20 19 19 18 17 15 15 14 12 12 11 10 10 9 8 7 7 7 8 8 8 8 8 9 9 8 7 6 5 6 7 7 9 9 9 9 9 10
8 8 9 12 16 17 18 19 18 17 16 15 14 13 11 10 9 9 8 7 6 6 6 6 6 7 7 8 8 8 8 7 6 5 5 7 7 8 9 9 9 10 10
11 8 8 9 13 15 16 18 18 17 16 15 14 13 11 8 8 7 6 5 5 5 4 4 5 6 7 8 8 8 8 7 6 5 6 6 7 8 9 9 9 10 10
17 14 9 9 11 14 14 15 15 15 15 14 14 13 11 9 7 6 4 3 3 3 3 4 6 7 8 8 8 8 7 6 5 5 6 6 7 8 8 9 9 9 10
17 15 13 11 12 12 10 12 12 12 12 13 14 14 11 9 7 5 3 1 2 3 4 5 6 7 7 7 7 7 6 5 4 5 6 6 6 7 8 8 9 9 9
14 17 14 12 12 12 11 10 11 10 11 11 13 14 11 7 5 4 3 2 1 2 3 3 4 5 6 6 5 5 5 5 4 5 6 6 6 6 7 7 8 8 9
15 17 15 14 14 12 10 9 10 10 11 13 13 14 13 9 5 5 4 4 3 3 2 2 3 3 4 4 5 4 4 4 4 5 6 7 7 6 6 7 8 8 8
17 18 16 16 15 13 11 9 9 11 13 13 13 14 15 12 9 6 5 4 4 4 3 3 2 2 2 3 4 4 4 4 4 5 5 6 7 7 7 7 7 8 8
17 17 18 17 15 15 13 11 11 12 13 12 13 15 15 14 11 9 5 4 5 5 4 4 3 3 2 2 3 4 4 4 4 4 5 6 7 8 8 7 7 8 8
13 16 18 16 17 17 14 12 11 13 13 12 14 15 15 15 14 10 6 5 7 6 5 3 2 2 2 2 2 2 3 4 4 4 4 5 6 7 7 8 8 8 8
16 16 18 18 19 18 15 12 10 11 12 12 13 13 15 15 15 12 8 7 8 6 4 3 2 2 1 1 1 2 3 3 3 3 4 5 5 6 6 7 8 8 8
14 15 17 18 17 16 12 9 8 8 8 11 12 14 15 15 15 13 8 8 9 5 3 3 3 2 2 1 2 2 2 2 2 3 2 3 4 4 5 5 7 7 8
13 15 18 19 17 15 14 13 12 12 10 9 9 14 16 16 16 13 8 7 7 5 5 5 3 3 2 1 2 2 3 2 2 2 2 2 2 3 3 4 5 5 6
16 18 18 19 19 18 16 14 10 8 7 8 7 11 15 16 16 14 10 7 7 5 6 5 4 3 2 2 3 2 2 4 2 1 1 1 1 2 3 3 4 4 5
15 18 18 20 19 19 15 10 7 5 4 6 8 9 11 15 16 14 13 10 8 7 7 6 6 6 4 1 1 3 3 3 3 3 2 1 2 1 2 4 4 5 5
15 14 15 17 17 17 16 15 16 12 11 12 9 9 9 13 14 15 14 12 9 7 7 7 6 5 5 3 2 1 2 3 2 3 3 2 3 3 3 3 5 6 6
11 11 12 14 15 15 17 18 18 13 10 7 6 9 10 9 11 13 13 11 9 7 8 8 7 6 5 5 4 3 2 1 2 3 4 4 3 3 3 4 5 6 7
7 9 10 13 14 15 17 17 17 15 12 11 9 10 9 7 7 10 11 10 9 8 8 8 8 8 6 5 4 4 4 3 4 4 5 4 4 4 3 4 4 6 7
Wind_Direction
185 182 167 155 150 146 141 136 129 122 116 111 108 103 99 95 91 87 83 79 77 75 74 72 70 69 69 68 66 65 64 62 59 56 53 56 60 60 58 56 53 48 50
157 170 164 155 151 147 143 138 130 124 120 117 113 109 104 99 95 90 85 82 79 78 77 76 74 72 71 71 70 68 67 65 61 57 50 43 52 60 57 54 52 50 50
149 163 161 156 152 148 144 140 135 130 125 121 117 113 108 104 100 94 90 86 83 82 80 79 77 75 73 73 71 70 68 66 62 55 44 33 35 57 56 53 51 49 48
151 157 158 156 153 150 147 143 139 134 129 125 122 117 112 107 103 99 95 91 89 86 83 81 80 78 75 72 71 71 69 66 61 51 38 29 26 52 54 51 49 47 46
150 155 158 157 155 153 150 146 143 139 135 130 127 122 118 113 107 104 100 95 92 89 85 82 79 77 75 73 72 71 69 65 56 46 34 25 18 43 51 46 43 42 41
148 155 162 159 157 155 153 150 147 145 141 137 132 128 124 118 113 109 104 99 95 92 88 84 80 76 73 72 71 71 69 64 55 45 32 20 10 32 42 39 33 31 30
151 157 165 161 160 159 157 154 152 149 146 143 139 134 130 124 119 113 108 104 99 94 89 85 80 75 71 71 70 70 68 64 58 45 27 12 6 26 34 31 26 23 20
152 158 167 165 163 163 161 159 156 154 152 150 146 142 136 130 126 122 117 111 102 96 90 84 78 73 70 70 69 68 64 64 59 42 20 4 5 18 25 24 18 15 12
151 156 167 168 166 167 166 163 160 159 158 155 151 148 143 140 136 131 126 118 108 99 91 85 77 72 68 65 63 63 61 63 56 34 10 353 1 12 19 21 17 13 11
156 162 166 165 164 167 166 166 164 163 162 159 155 150 148 146 142 136 132 127 116 105 96 84 74 68 61 55 52 53 57 56 45 27 2 347 359 8 17 20 17 15 16
175 177 169 162 162 162 165 169 167 167 166 162 157 153 148 140 135 130 134 138 128 114 98 79 66 59 53 45 43 48 54 50 40 19 353 347 360 7 17 20 20 19 21
187 186 178 169 164 163 168 168 167 166 166 160 155 152 150 147 144 141 150 149 129 103 80 61 58 53 49 43 40 45 48 45 38 10 350 352 2 11 19 23 24 24 23
187 186 184 176 170 168 166 163 163 162 159 157 157 157 156 153 151 149 151 144 93 75 63 50 52 50 48 46 42 42 41 40 30 9 357 4 9 13 20 24 27 27 26
184 191 186 180 176 174 168 167 164 163 162 163 165 165 162 158 160 165 167 167 138 106 82 61 55 52 51 49 47 43 39 37 29 13 4 11 16 19 25 29 29 29 30
190 192 190 185 183 178 171 173 173 172 173 172 172 174 173 169 172 175 181 184 177 154 129 102 77 60 47 42 43 44 35 31 31 27 16 18 27 29 33 32 29 29 29
196 194 191 190 188 181 182 181 179 179 177 176 179 182 182 180 178 178 184 186 187 177 163 139 113 88 61 52 40 36 33 32 38 38 33 35 36 36 39 35 30 26 24
196 193 192 193 189 188 187 185 183 183 180 181 185 187 187 187 185 183 181 186 192 180 156 129 108 89 69 53 34 26 31 34 40 42 49 54 49 45 45 38 30 25 19
191 191 193 193 193 193 191 187 186 185 184 187 187 188 191 191 189 182 180 188 188 170 153 133 117 96 68 51 25 13 20 30 38 49 64 67 64 56 47 40 33 24 13
195 192 192 193 193 195 192 188 185 184 188 190 188 189 193 193 189 183 184 187 177 161 154 143 118 128 107 51 31 28 17 21 27 55 66 72 71 64 53 39 32 21 9
197 192 193 194 193 190 187 181 180 184 191 190 191 194 193 192 189 184 182 179 170 155 154 146 137 111 110 105 63 35 11 7 34 51 61 72 69 64 54 39 25 15 7
194 192 193 194 191 185 187 190 192 198 196 195 196 195 193 191 187 183 180 173 171 172 172 159 141 129 102 93 79 14 359 14 37 39 43 59 52 50 44 28 13 5 359
198 197 195 195 191 189 193 193 193 186 189 192 189 193 194 191 187 187 181 178 175 169 164 163 151 140 126 104 125 93 352 338 341 6 357 12 354 4 4 350 344 341 339
201 199 198 196 192 192 186 175 157 147 142 175 192 196 195 192 189 188 186 180 177 175 178 178 168 159 163 146 128 145 156 240 294 313 310 314 314 311 314 312 313 320 320
205 200 197 193 191 187 179 179 179 187 192 195 191 192 188 190 190 189 185 183 180 179 179 180 175 167 154 168 164 139 160 164 179 293 307 301 298 279 281 290 294 301 302
197 192 190 186 186 182 183 185 187 193 192 173 166 177 186 189 190 189 186 184 183 183 182 175 171 173 171 169 171 163 149 116 155 189 270 301 310 278 265 268 273 279 284
180 180 179 180 184 181 184 186 190 189 177 168 174 182 187 186 188 189 186 185 185 183 183 182 179 178 180 174 173 170 169 172 191 189 228 260 281 285 283 269 257 262 272
Height
1515 1519 1522 1525 1527 1529 1531 1533 1534 1535 1536 1537 1537 1538 1538 1539 1540 1540 1541 1541 1541 1542 1542 1542 1542 1542 1542 1542 1542 1542 1542 1542 1542 1542 1542 1542 1542 1541 1541 1541 1541 1541 1541
1514 1518 1521 1524 1527 1529 1531 1533 1534 1535 1536 1537 1538 1539 1539 1540 1540 1541 1541 1542 1542 1542 1542 1542 1542 1543 1543 1543 1543 1543 1543 1543 1543 1543 1543 1542 1543 1542 1542 1542 1542 1542 1541
1514 1517 1520 1523 1526 1529 1531 1532 1534 1535 1537 1538 1538 1539 1540 1540 1541 1541 1542 1542 1543 1543 1543 1543 1543 1543 1543 1543 1543 1543 1543 1543 1543 1543 1543 1543 1543 1544 1543 1543 1542 1542 1542
1514 1517 1520 1523 1526 1529 1531 1532 1534 1536 1537 1538 1539 1540 1540 1541 1541 1542 1543 1543 1543 1543 1543 1544 1544 1544 1544 1544 1544 1544 1544 1544 1544 1544 1544 1544 1544 1545 1544 1544 1543 1543 1542
1513 1517 1520 1523 1526 1528 1531 1532 1534 1536 1537 1538 1539 1540 1541 1542 1542 1543 1543 1543 1544 1544 1544 1544 1545 1545 1545 1545 1545 1545 1545 1545 1545 1545 1545 1545 1545 1546 1545 1544 1544 1544 1543
1513 1516 1520 1523 1525 1528 1530 1532 1534 1536 1537 1538 1539 1540 1541 1542 1543 1543 1544 1544 1545 1545 1545 1545 1546 1546 1546 1546 1546 1546 1546 1546 1546 1546 1546 1546 1545 1546 1546 1545 1544 1544 1544
1513 1516 1519 1522 1525 1528 1530 1532 1534 1536 1537 1538 1539 1541 1542 1542 1543 1544 1544 1545 1545 1546 1546 1547 1547 1547 1547 1547 1547 1547 1547 1547 1547 1546 1546 1546 1546 1546 1546 1545 1545 1544 1544
1513 1516 1519 1522 1525 1527 1530 1532 1533 1535 1537 1538 1539 1541 1542 1543 1543 1544 1545 1545 1546 1547 1547 1547 1548 1548 1548 1548 1548 1547 1547 1547 1547 1547 1546 1546 1546 1546 1546 1545 1544 1544 1543
1514 1516 1519 1522 1524 1527 1529 1531 1533 1535 1536 1538 1539 1540 1542 1543 1543 1544 1545 1546 1547 1547 1548 1548 1548 1548 1548 1548 1548 1548 1548 1548 1547 1547 1546 1546 1546 1546 1545 1544 1544 1543 1543
1513 1515 1518 1520 1523 1525 1528 1530 1532 1534 1536 1537 1539 1540 1541 1542 1544 1545 1545 1546 1547 1548 1548 1549 1549 1549 1549 1548 1548 1548 1548 1548 1547 1547 1546 1546 1545 1546 1545 1544 1543 1542 1542
1511 1514 1516 1519 1522 1524 1527 1529 1531 1533 1535 1537 1538 1540 1541 1542 1543 1545 1546 1546 1547 1548 1549 1549 1549 1549 1549 1549 1549 1548 1548 1548 1547 1547 1546 1546 1545 1545 1545 1544 1542 1542 1541
1507 1511 1514 1517 1520 1523 1525 1528 1530 1532 1534 1536 1537 1539 1541 1542 1543 1545 1546 1547 1547 1548 1549 1549 1549 1549 1549 1549 1549 1549 1548 1547 1547 1546 1546 1545 1545 1545 1544 1543 1542 1541 1540
1504 1508 1511 1515 1518 1521 1523 1526 1528 1531 1533 1534 1536 1538 1540 1541 1543 1544 1545 1546 1547 1548 1549 1549 1549 1549 1549 1549 1549 1548 1548 1547 1546 1546 1545 1545 1544 1544 1543 1542 1541 1540 1539
1502 1505 1509 1512 1515 1518 1521 1524 1526 1529 1531 1533 1535 1537 1539 1541 1542 1544 1545 1546 1547 1548 1548 1549 1549 1549 1549 1549 1548 1548 1547 1547 1546 1545 1544 1544 1543 1543 1542 1542 1541 1540 1539
1499 1502 1506 1509 1512 1516 1519 1522 1524 1527 1529 1532 1534 1536 1538 1540 1541 1543 1544 1545 1546 1547 1548 1548 1548 1549 1549 1548 1548 1547 1547 1546 1545 1544 1544 1543 1542 1542 1541 1541 1540 1539 1538
1496 1499 1503 1506 1509 1513 1516 1519 1522 1525 1527 1530 1532 1534 1537 1539 1540 1542 1543 1545 1546 1547 1547 1548 1548 1548 1548 1548 1547 1546 1546 1545 1544 1543 1543 1542 1541 1541 1540 1539 1538 1538 1537
1492 1496 1499 1502 1506 1509 1513 1516 1519 1522 1525 1527 1530 1533 1535 1537 1539 1540 1542 1543 1545 1546 1546 1547 1547 1547 1547 1547 1546 1546 1545 1544 1543 1543 1542 1541 1540 1540 1539 1538 1537 1536 1535
1488 1492 1495 1499 1502 1505 1509 1513 1516 1519 1522 1525 1528 1530 1533 1535 1537 1539 1540 1542 1543 1544 1545 1546 1546 1546 1546 1546 1545 1545 1544 1543 1542 1542 1541 1540 1539 1539 1538 1537 1536 1535 1534
1483 1487 1490 1494 1497 1501 1505 1509 1513 1516 1519 1522 1525 1528 1530 1533 1535 1536 1538 1540 1541 1542 1543 1544 1545 1545 1545 1545 1544 1543 1543 1542 1541 1540 1540 1539 1538 1537 1536 1535 1534 1533 1532
1478 1481 1485 1489 1493 1497 1501 1505 1509 1512 1516 1519 1521 1524 1527 1530 1532 1534 1536 1538 1539 1540 1541 1542 1543 1543 1543 1543 1543 1542 1541 1540 1540 1539 1539 1538 1537 1536 1535 1534 1533 1531 1530
1471 1475 1478 1482 1487 1491 1495 1499 1502 1506 1510 1514 1517 1521 1524 1527 1529 1531 1533 1535 1536 1538 1539 1540 1541 1541 1542 1541 1541 1540 1540 1539 1538 1538 1537 1536 1535 1534 1533 1532 1531 1529 1528
1464 1467 1471 1475 1480 1484 1488 1493 1497 1502 1505 1509 1513 1517 1520 1523 1526 1528 1530 1532 1534 1535 1536 1537 1538 1539 1539 1539 1539 1539 1538 1538 1536 1536 1535 1534 1534 1533 1531 1530 1528 1527 1525
1457 1460 1464 1469 1473 1478 1483 1488 1493 1497 1501 1505 1508 1511 1515 1519 1522 1524 1527 1529 1531 1532 1533 1535 1535 1536 1537 1537 1537 1537 1536 1535 1534 1533 1533 1532 1531 1530 1529 1527 1526 1524 1522
1450 1455 1458 1463 1467 1471 1476 1481 1485 1489 1493 1497 1502 1506 1510 1514 1517 1520 1523 1525 1527 1529 1530 1531 1532 1533 1534 1534 1534 1534 1534 1533 1532 1530 1530 1529 1528 1527 1526 1524 1522 1521 1519
1444 1448 1452 1456 1461 1465 1470 1474 1479 1484 1488 1493 1497 1502 1506 1510 1513 1516 1518 1521 1523 1525 1526 1528 1529 1530 1530 1531 1531 1531 1530 1530 1529 1528 1526 1525 1524 1524 1522 1521 1519 1517 1515
1438 1442 1446 1450 1455 1459 1464 1469 1473 1478 1483 1488 1492 1496 1501 1504 1508 1511 1514 1516 1519 1521 1522 1524 1525 1526 1526 1527 1527 1527 1527 1527 1526 1525 1523 1520 1519 1519 1518 1516 1514 1513 1510